Flag for Marshall Islands Weather past 2 weeks in Majuro, Marshall Islands

Now
79 °F

Sprinkles. Cloudy.


Feels Like: 84 °F
Forecast: 82 / 85 °F
Wind: No wind

Location: Majuro Atoll

Current Time: Sep 4, 2015 at 9:39:07 AM

Latest Report: Sep 4, 2015 at 8:50 AM


Visibility: 10 mi

Pressure: 29.88 "Hg

Humidity: 93%

Dew point: 77 °F

Location of MajuroLocation

Historic Weather in Majuro — Graph

°F

Majuro temperature yesterday

Maximum temperature yesterday: 88 °F (at 1:52 PM)
Minimum temperature yesterday: 82 °F (at 12:52 AM)
Average temperature yesterday: 84 °F

Past Weeks' High & Low Weather Summary

 TemperatureHumidityPressure
High88 °F (Sep 3, 1:52 PM)94% (Aug 21, 6:54 PM)29.92 "Hg (Aug 21, 6:54 PM)
Low77 °F (Aug 23, 2:57 AM)71% (Sep 3, 1:52 PM)29.72 "Hg (Aug 27, 2:55 PM)
Average83 °F83%29.80 "Hg
* Reported Aug 20 7:50 AM — Sep 4 7:52 AM, Majuro, Weather by CustomWeather, © 2015

Note: Actual official high and low records may vary slightly from our data, if they occured in-between our weather recording intervals... More about our weather records

Advertising

Majuro weather history for previous 24 hours

 ConditionsComfort  
Time TempWeatherWind HumidityBarometerVisibility
7:52 AM
Fri, Sep 4
79 °FSprinkles. Cloudy.15 mph90%29.85 "Hg10 mi
6:53 AM78 °FRain showers. Overcast.8 mph92%29.85 "Hg8 mi
5:55 AM81 °FSprinkles. Overcast.6 mph89%29.83 "Hg12 mi
4:54 AM82 °FMostly cloudy.9 mph86%29.81 "Hg15 mi
3:53 AM83 °FMostly cloudy.8 mph84%29.81 "Hg15 mi
2:52 AM83 °FMostly cloudy.9 mph84%29.83 "Hg15 mi
1:53 AM82 °FOvercast.7 mph89%29.85 "Hg15 mi
12:52 AM84 °FOvercast.9 mph83%29.87 "Hg15 mi
11:51 PM
Thu, Sep 3
84 °FMostly cloudy.9 mph85%29.88 "Hg15 mi
10:52 PM84 °FMostly cloudy.9 mph80%29.89 "Hg15 mi
9:56 PM84 °FMostly cloudy.7 mph79%29.90 "Hg15 mi
8:52 PM83 °FMostly cloudy.9 mph83%29.88 "Hg15 mi
7:56 PM84 °FMostly cloudy.7 mph82%29.88 "Hg15 mi
6:50 PM85 °FMore clouds than sun.13 mph78%29.86 "Hg15 mi
5:50 PM86 °FBroken clouds.9 mph75%29.85 "Hg15 mi
4:54 PM87 °FBroken clouds.8 mph74%29.83 "Hg15 mi
3:57 PM88 °FPartly sunny.9 mph72%29.83 "Hg15 mi
2:52 PM87 °FPartly sunny.7 mph72%29.84 "Hg15 mi
1:52 PM88 °FScattered clouds.9 mph71%29.85 "Hg20 mi
12:51 PM87 °FScattered clouds.8 mph74%29.86 "Hg15 mi
11:53 AM87 °FScattered clouds.10 mph73%29.88 "Hg20 mi
10:54 AM86 °FScattered clouds.6 mph76%29.90 "Hg20 mi
9:52 AM85 °FMore clouds than sun.6 mph78%29.91 "Hg15 mi
Weather by CustomWeather, © 2015

See weather overviewHow to use our weather pages